Weather observations for the past three days for
Fairchild Air Force Base
Metric (Imperial)
Date Time (pdt) Wind (kph) Vis. (km) Weather Sky Cond. Temperature (ºC) Relative Humidity Wind Chill (°C) Heat Index (°C) Pressure Precipitation (cm)
Air Dwpt 6 hour altimeter (cm) sea level (mb) 1 hr 3 hr 6 hr
Max. Min.
04 14:55 NE 17 16.09 Fair CLR 24.6 3.8 26% 25 75.67 1007.5
04 13:55 NE 6 16.09 Fair CLR 23.6 4.5 29% 75.69 1008.0
04 12:55 NE 11 16.09 Fair CLR 22.9 2.9 27% 75.69 1007.9
04 11:55 NE 19 16.09 Fair CLR 22.2 5.2 33% 75.72 1008.2
04 10:55 E 15 16.09 Fair CLR 20.7 5.9 20.7 10.6 38% 75.72 1008.2
04 09:55 NE 11 16.09 Fair CLR 19.1 5.9 42% 75.72 1008.2
04 08:55 NE 11 16.09 Fair CLR 17.2 5.5 46% 75.72 1008.2
04 06:55 NE 7 16.09 Fair CLR 12.4 4.8 60% 75.69 1007.9
04 05:55 Calm 16.09 Fair CLR 11 3.5 60% 75.67 1007.5
04 04:55 Calm 16.09 Fair CLR 11.5 3.8 15.8 9.8 59% 75.64 1007.0
04 03:55 Calm 16.09 Fair CLR 13 3.6 53% 75.64 1007.0
04 02:55 Calm 16.09 Fair CLR 11.4 2.7 55% 75.64 1007.2
04 01:55 NW 13 16.09 Fair CLR 10.9 4.1 63% 75.64 1007.3
04 00:55 NW 15 16.09 Fair CLR 14 3.5 49% 75.64 1007.0
03 23:55 NW 13 16.09 Fair CLR 13.6 3.9 52% 75.64 1007.2
03 22:55 W 15 16.09 Fair CLR 15.9 3.3 26.1 14.9 43% 75.67 1007.4
03 21:55 W 11 16.09 Fair CLR 16.2 4.2 45% 75.69 1007.9
03 20:55 W 13 16.09 Fair CLR 18.1 4.3 40% 75.69 1007.9
03 19:55 W 9 16.09 Fair CLR 20.8 5.2 36% 75.69 1007.9
03 18:55 W 11 16.09 Fair CLR 24.1 3.9 27% 25 75.69 1007.9
03 17:55 W 9 16.09 Fair CLR 25.5 3.4 24% 25 75.72 1008.2
03 16:55 W 7 16.09 Fair CLR 25.7 1.7 25.9 21.5 21% 25 75.79 1009.1
03 15:55 NE 7 16.09 Fair CLR 25.6 0.2 19% 25 75.82 1009.2
03 14:55 N 13 16.09 Fair CLR 24.9 1.7 22% 25 75.9 1010.4
03 13:55 Calm 16.09 Fair CLR 23.9 -0.4 20% 24 75.97 1011.8
03 12:55 W 6 16.09 Fair CLR 23.3 -0.3 21% 76.02 1012.3
03 11:55 N 15 16.09 Fair CLR 22.7 2.7 27% 76.05 1012.7
03 10:55 NW 7 16.09 Fair CLR 21.4 4 21.4 9.6 32% 76.07 1013.2
03 09:55 E 7 16.09 Fair CLR 19 4.7 39% 76.1 1013.5
03 08:55 E 7 16.09 Fair CLR 17.1 6 48% 76.15 1014.0
03 07:55 E 9 16.09 Fair CLR 15.4 5.3 51% 76.12 1013.7
03 06:55 Calm 16.09 Fair CLR 12.3 5 61% 76.12 1013.7
03 05:55 E 7 16.09 Fair CLR 9.8 2.9 62% 9 76.1 1013.5
03 04:55 N 6 16.09 Fair CLR 11.4 2.2 14.3 10.4 53% 76.12 1013.7
03 03:55 N 13 16.09 Fair CLR 13.4 3.2 50% 76.12 1013.7
03 02:55 Calm 16.09 Fair CLR 12.4 2.8 52% 76.12 1013.7
03 01:55 NW 7 16.09 Fair CLR 10.4 2.7 59% 76.12 1013.9
03 00:55 Calm 16.09 Fair CLR 13.1 3.2 51% 76.1 1013.4
02 23:55 NW 9 16.09 Fair CLR 12.8 3.7 54% 76.1 1013.5
02 22:55 NW 7 14.48 Fair CLR 13.6 5 25.4 13 56% 76.07 1013.2
02 21:55 W 6 16.09 Fair CLR 14.9 4.3 49% 76.1 1013.7
02 20:55 NW 9 16.09 Fair CLR 19.6 2 31% 76.07 1013.0
02 19:55 NW 9 16.09 Fair CLR 20.7 3.4 32% 76.05 1012.7
02 18:55 NW 17 16.09 Fair CLR 23.7 3 26% 76.02 1012.3
02 17:55 NW 7 16.09 Fair CLR 24.8 1 21% 25 76.05 1012.8
02 16:55 Calm 16.09 Partly Cloudy SCT150 24.2 1.1 24.9 19.8 22% 25 76.07 1013.2
02 15:55 N 11 16.09 A Few Clouds FEW140 24 2.7 25% 25 76.1 1013.5
02 14:55 NE 7 16.09 Fair CLR 24.4 3.1 25% 25 76.15 1014.0
02 13:55 E 9 16.09 A Few Clouds FEW140 23.5 3.4 27% 76.2 1014.7
02 12:55 NE 13 16.09 Partly Cloudy FEW120 SCT170 SCT200 22 3.6 30% 76.23 1015.1
02 11:55 NE 11 16.09 Partly Cloudy SCT130 21.6 4.6 33% 76.25 1015.4
02 10:55 E 17 16.09 Fair CLR 19.7 5 19.7 9.7 38% 76.28 1015.8
02 09:55 NE 11 16.09 Fair CLR 17.3 5.6 46% 76.3 1016.3
02 08:55 E 11 16.09 Partly Cloudy SCT130 15.8 4.8 48% 76.28 1016.1
02 07:55 NE 9 16.09 Fair CLR 14.6 4.3 50% 76.28 1015.9
02 06:55 NE 7 16.09 A Few Clouds FEW150 12.4 5.1 61% 76.25 1015.8
02 05:55 NE 13 16.09 Mostly Cloudy BKN150 9.8 5 72% 8 76.23 1015.4
02 04:55 NE 11 16.09 Fair CLR 10.3 4.2 15.4 9.7 66% 76.23 1015.4
02 03:55 NE 6 16.09 Fair CLR 10.6 4.9 68% 76.2 1014.9
02 02:55 E 7 16.09 Fair CLR 11.7 4.7 62% 76.2 1014.9
02 01:55 NE 7 16.09 Fair CLR 12.6 2.2 49% 76.2 1014.9
02 00:55 N 6 16.09 Fair CLR 13.8 1.4 43% 76.2 1014.7
01 23:55 Calm 16.09 Fair CLR 14.4 2.6 45% 76.2 1014.9
01 22:55 Calm 16.09 Fair CLR 15.6 1 22.7 15.3 37% 76.2 1014.7
01 21:55 Calm 16.09 Fair CLR 15.9 2.7 41% 76.2 1015.1
01 20:55 SE 6 16.09 Fair CLR 16.8 2.4 38% 76.2 1015.2
01 19:55 Calm 16.09 Fair CLR 19 2.4 33% 76.17 1014.9
01 18:55 SW 7 16.09 Fair CLR 20.6 5 36% 76.17 1014.9
01 17:55 W 7 16.09 Fair CLR 21.7 0.8 25% 76.2 1015.4
01 16:55 SW 11 16.09 Fair CLR 22.2 1.2 23 19 25% 76.2 1015.4
01 15:55 W 9 16.09 Fair CLR 22.9 1.2 24% 76.23 1015.6
Date Time (pdt) Wind (kph) Vis. (km) Weather Sky Cond. Air Dwpt Max. Min. Relative Humidity Wind Chill (°C) Heat Index (°C) altimeter (cm) sea level (mb) 1 hr 3 hr 6 hr
6 hour
Temperature (ºC) Pressure Precipitation (cm)